Dewpoint
25 16 13 9 15 18 18 22 21 20 22 23 23 21 23 22 21 16 15 17 23 15 11 10 12 12 10 15 19 20 19 18 16 15 15 15 14 14 14 14 14 14 16 22 18 14 13 12 8 10 10 8 5 6 8 8 11 11 10 15 10 11 12 14 14 15 18 16 16 16 15 15 16 17 20 19 19 19 19 21 21 21 21 21 21 22
19 10 9 17 20 18 16 19 24 18 24 25 22 21 22 19 14 11 8 12 22 11 9 7 9 10 11 13 18 20 18 17 16 15 14 14 15 15 15 16 15 15 21 12 4 5 4 6 11 8 7 12 3 6 9 7 10 10 13 14 11 12 12 14 14 18 18 17 16 15 15 16 17 16 16 16 17 18 20 21 22 22 21 21 21 22
11 8 14 16 20 21 27 24 20 14 18 21 19 15 9 12 13 12 12 17 18 14 8 9 10 11 13 14 18 19 18 18 16 15 14 14 14 14 15 16 15 10 12 6 2 8 2 9 7 4 5 2 4 6 7 8 11 12 14 14 15 16 16 16 18 22 18 15 16 16 16 16 16 16 16 16 18 19 19 19 19 20 20 21 21 21
7 8 15 19 25 24 24 23 19 16 19 12 9 6 8 14 6 6 12 12 17 13 11 10 12 14 17 18 18 18 16 16 17 17 17 16 15 15 16 14 12 12 7 2 1 -2 -1 -0 0 3 4 2 6 5 3 7 10 12 18 14 15 17 16 18 19 25 20 17 18 18 18 18 16 16 20 17 17 17 17 17 18 18 19 20 21 21
5 11 11 25 25 24 22 22 17 12 5 14 14 8 8 8 8 6 8 14 16 18 19 16 12 11 17 17 17 17 19 17 19 17 18 18 20 19 15 13 7 3 6 3 -0 0 1 -0 1 2 5 4 3 2 2 7 10 10 13 14 15 17 18 19 23 19 18 19 17 18 18 18 17 16 16 15 16 17 19 20 18 17 18 18 19 19
22 24 25 22 18 20 13 10 17 14 9 12 15 10 9 12 13 14 15 14 8 8 18 12 7 9 12 16 17 17 17 17 17 17 17 18 16 12 6 8 13 15 8 5 3 3 4 2 1 2 3 2 1 -0 2 7 12 12 13 13 14 18 19 19 19 19 19 18 18 17 16 14 15 14 16 17 17 17 16 16 16 17 18 19 18 18
20 24 22 18 14 16 17 15 19 13 9 3 9 17 15 13 14 15 14 12 7 -2 7 17 7 5 12 8 16 17 16 16 17 17 17 17 16 11 8 3 3 1 3 7 6 4 2 3 3 2 2 1 0 -0 2 6 12 13 13 13 15 16 19 20 19 17 19 18 17 16 15 15 15 16 17 17 15 14 14 16 15 16 17 18 18 18
21 17 18 20 16 13 7 2 7 13 10 8 14 17 16 17 15 15 15 13 11 17 17 18 14 9 4 6 17 17 16 16 16 17 17 16 13 9 6 8 6 5 5 6 5 3 3 4 4 3 3 1 1 1 2 5 12 13 12 13 14 16 19 19 15 13 17 19 18 16 16 17 18 18 16 14 14 13 14 11 10 10 13 17 18 18
13 12 18 17 14 9 3 -7 4 17 9 12 15 19 18 18 18 18 16 13 10 10 11 13 14 -3 -1 8 17 17 16 16 16 16 17 16 13 10 10 8 6 6 7 6 4 3 4 4 5 5 3 1 2 3 3 9 13 13 12 13 14 15 15 12 12 14 15 19 18 17 17 18 18 17 16 13 12 10 9 7 7 7 9 12 16 18
19 23 20 18 7 -1 8 5 10 20 14 18 21 22 21 21 18 13 7 3 8 9 4 4 9 -5 1 8 15 16 16 16 16 17 17 16 11 10 9 6 6 6 9 8 8 6 6 7 6 5 3 3 3 3 9 13 13 11 10 10 12 10 10 10 11 12 14 16 18 17 18 18 16 12 9 8 7 6 6 4 4 4 5 11 16 19
19 30 28 13 8 5 10 14 16 19 18 22 21 9 8 5 3 9 14 10 4 2 9 8 4 -2 -2 1 7 15 17 16 17 18 20 19 8 7 10 5 6 6 7 7 6 6 7 7 6 5 3 3 4 5 9 14 10 8 8 7 7 7 8 9 10 11 13 14 14 16 18 15 11 10 9 8 6 5 4 3 3 3 5 9 13 16
17 24 18 23 25 23 18 14 19 22 22 20 12 5 -1 -5 -0 12 9 7 -11 -6 1 7 4 3 -4 0 3 17 15 15 17 12 3 7 6 8 6 7 6 9 9 7 7 6 6 6 5 4 4 4 5 7 10 9 7 7 6 6 6 6 7 8 10 12 12 12 12 15 15 13 11 9 8 6 5 4 3 3 3 6 9 12 16 17
14 17 21 21 27 17 17 5 6 15 16 10 5 1 -4 -5 -3 -5 -0 -7 -10 -8 -0 3 2 -3 -2 4 11 15 16 15 14 9 4 2 3 4 5 5 10 8 5 7 6 6 7 5 4 4 4 5 7 7 4 4 6 6 6 6 6 7 8 9 11 10 10 10 10 12 13 12 11 10 8 7 5 4 4 4 6 7 10 14 17 17
7 16 15 17 17 20 12 2 -1 -2 4 8 -0 1 -2 -7 -13 -12 -9 -9 -5 -4 1 -1 1 -2 0 5 11 15 17 19 12 7 4 3 1 1 5 6 8 6 5 6 6 6 5 5 5 5 6 6 4 2 2 4 7 6 6 6 7 7 8 9 8 7 8 9 10 11 12 11 10 8 7 6 4 3 4 7 8 14 17 16 15 16
-1 2 9 14 7 15 9 2 0 2 2 8 8 -2 -5 -5 -13 -9 -12 -10 -5 -4 -3 1 -4 -4 -2 3 16 17 19 19 16 5 5 4 2 3 5 4 4 5 4 5 5 5 5 6 5 6 6 3 1 1 3 5 5 5 5 7 6 6 6 6 6 8 9 11 11 11 12 11 9 8 7 5 6 3 5 11 18 17 15 15 16 20
5 3 8 17 11 13 12 17 18 17 7 18 7 12 3 -4 6 -6 -3 -7 -4 -1 -1 -1 -1 5 1 13 16 10 5 6 11 4 9 3 6 5 7 8 6 5 5 5 4 4 5 6 5 4 3 1 2 2 4 4 4 5 6 6 5 5 5 5 8 9 11 10 9 9 11 10 10 10 6 5 4 3 10 17 14 10 9 11 16 19
8 -1 10 18 19 10 7 22 19 10 -3 6 7 1 0 8 3 -4 4 3 3 -1 2 -2 6 3 7 14 13 8 7 5 7 8 6 4 5 6 6 5 4 5 4 4 5 5 6 4 2 2 1 1 2 3 4 4 4 5 5 5 4 4 5 6 10 10 9 9 9 10 11 11 9 6 2 1 1 7 15 11 8 7 7 9 12 15
0 5 13 12 10 16 16 21 21 21 12 9 1 5 15 13 11 3 -3 -3 -3 -3 -4 -2 -1 1 -1 -0 13 7 7 8 8 7 3 3 4 4 5 4 5 4 4 4 4 6 6 3 2 1 2 1 2 3 3 3 4 4 5 4 4 5 6 9 9 9 9 9 9 12 12 10 6 3 2 2 7 14 10 5 5 6 8 9 12 14
11 8 9 13 11 16 21 17 13 17 17 8 8 12 6 -1 -0 5 -4 -3 -4 -4 -4 -2 1 3 3 6 10 6 7 6 6 5 2 3 3 3 4 5 5 4 5 5 6 8 4 1 0 0 1 2 2 3 3 4 4 4 4 5 6 6 7 8 8 8 9 9 10 11 11 8 6 4 3 7 13 8 4 3 5 7 8 10 12 14
15 2 8 15 8 11 8 13 3 9 16 17 16 9 12 6 1 -3 1 -1 2 -1 -2 -2 1 1 7 10 5 4 5 5 3 2 2 3 4 4 4 5 5 5 5 6 6 6 2 0 -1 -0 1 2 3 3 4 4 4 3 4 5 6 7 5 6 7 8 8 6 6 5 7 6 5 5 7 10 7 3 2 4 6 8 10 12 14 15
14 7 1 9 16 14 5 9 1 4 1 7 7 4 5 1 11 7 1 1 1 -2 -3 -1 -2 -0 6 3 3 3 3 3 2 2 3 3 3 4 4 5 5 5 5 6 7 2 0 -0 -0 1 1 3 3 3 4 3 3 4 5 5 4 3 4 5 7 7 6 5 5 6 5 5 4 4 5 6 5 3 2 4 8 10 10 13 16 18
8 9 7 7 8 7 5 6 4 5 7 6 9 8 8 -1 3 1 0 4 1 -0 -1 -2 -1 2 6 2 3 3 3 2 3 3 3 4 4 5 5 6 6 6 5 6 4 -0 0 0 0 1 2 3 2 2 2 3 4 4 3 3 3 3 5 6 6 4 4 4 5 5 5 3 2 1 3 3 2 3 3 6 6 7 8 11 17 16
12 10 9 11 10 7 6 6 13 12 10 9 7 8 9 5 5 2 1 1 2 3 2 5 3 5 8 3 3 4 5 4 4 5 5 5 5 5 6 7 7 6 6 6 1 0 0 0 -0 1 2 1 1 2 2 3 4 4 3 3 3 3 4 4 4 4 4 3 3 2 2 2 2 2 2 2 2 2 2 3 4 6 10 13 14 13
24 8 2 6 10 13 14 12 13 14 13 9 9 11 8 4 6 7 5 4 4 1 4 5 3 4 3 7 4 5 8 8 7 7 7 7 6 6 6 7 7 6 6 5 1 0 0 -0 0 1 1 1 2 3 3 4 4 3 3 3 3 3 3 2 2 2 2 2 1 2 1 1 1 2 1 1 2 1 2 3 5 7 10 12 13 12
2 7 2 3 3 4 1 6 7 9 8 9 6 8 10 9 8 9 6 5 4 7 7 5 1 3 7 8 7 7 9 8 8 7 7 6 6 6 7 7 7 6 5 2 0 0 -0 -1 -0 0 1 1 2 3 4 4 3 3 3 3 2 2 2 1 1 0 1 1 2 0 0 -0 1 -0 -0 -0 -0 1 2 3 5 8 11 12 11 12
5 7 3 -2 -1 -1 -1 -1 1 4 7 5 2 8 7 5 6 6 3 2 2 4 7 3 4 4 5 7 7 8 9 8 8 8 8 7 7 7 7 7 6 5 5 1 0 1 -0 0 0 -0 0 2 3 3 4 4 3 3 2 2 1 0 -0 -1 -1 -0 0 1 0 -2 -2 -2 -2 -2 -2 -1 0 2 3 5 7 9 9 10 10 11
3 11 8 5 3 4 6 7 4 10 5 7 7 7 8 5 8 7 6 5 5 6 4 5 7 5 4 7 6 9 8 8 8 8 8 7 7 6 6 6 6 6 3 1 2 2 1 -0 -1 0 1 2 3 3 4 4 3 2 2 1 0 -1 -1 -2 -1 -1 0 -1 -2 -3 -4 -3 -3 -3 -2 -0 1 2 3 4 6 7 7 8 9 10
1 4 10 11 10 10 7 6 6 9 6 4 5 7 8 7 5 5 4 3 6 6 3 5 4 6 7 6 7 7 7 8 8 8 8 6 6 6 6 6 11 5 2 3 4 3 1 0 1 2 2 3 3 3 4 4 3 2 1 0 -1 -1 -3 -3 -2 -0 -1 -2 -3 -4 -4 -4 -4 -3 -2 -0 1 1 2 3 4 6 6 8 8 9
3 4 5 2 3 6 6 6 7 6 5 5 6 7 7 6 2 -0 2 7 7 4 4 4 6 8 6 5 7 7 8 8 8 8 7 7 6 6 7 6 5 4 5 7 5 3 2 1 2 2 3 3 3 3 4 4 3 2 1 -0 -1 -3 -3 -2 -1 -1 -2 -3 -4 -5 -5 -5 -3 -2 -2 -1 0 1 1 2 2 4 5 6 7 8
4 3 3 2 7 7 7 6 5 5 5 6 6 3 1 1 3 4 4 6 7 7 7 8 6 3 4 6 6 8 9 9 8 8 8 7 7 7 7 6 5 7 7 6 4 3 3 3 3 2 3 3 3 3 4 4 3 2 0 -1 -2 -2 -2 -2 -2 -2 -3 -4 -4 -5 -4 -4 -3 -2 -2 -2 -1 0 0 1 2 4 5 6 6 7
6 7 10 3 4 7 7 7 6 6 5 2 1 2 1 2 5 7 7 9 9 5 4 3 3 4 6 7 8 9 9 9 9 8 8 7 7 7 7 6 8 8 6 5 4 4 3 3 3 3 3 3 3 5 5 3 2 0 -0 -1 -2 -2 -3 -2 -2 -3 -4 -5 -5 -5 -5 -4 -4 -4 -3 -3 -2 -2 -0 1 2 3 4 4 6 7
4 7 3 -1 5 6 5 1 2 3 2 3 2 2 2 2 2 6 1 6 4 4 3 4 5 5 6 9 10 10 10 9 8 9 8 7 7 7 9 9 9 8 5 4 4 3 3 3 3 3 3 3 5 6 3 1 0 0 -1 -2 -2 -2 -2 -3 -4 -4 -4 -5 -5 -5 -5 -4 -4 -4 -4 -3 -3 -1 -0 2 2 2 3 4 5 7
3 2 6 1 6 5 4 4 2 1 4 1 2 3 5 3 2 -1 -1 -0 0 0 4 4 4 6 8 11 10 10 9 8 8 8 8 8 8 10 9 6 9 7 5 4 3 3 3 3 3 4 4 5 7 4 2 0 -0 -1 -2 -3 -2 -3 -3 -4 -4 -5 -5 -5 -5 -6 -5 -5 -4 -4 -4 -3 -2 -1 1 2 2 2 3 4 5 6
5 5 6 3 0 4 5 3 2 2 0 1 5 7 2 0 -1 -1 -1 -0 1 4 4 6 7 9 10 11 10 9 8 8 7 8 9 8 10 11 11 10 9 6 4 3 3 3 3 4 4 5 5 7 5 2 0 -0 -1 -1 -2 -3 -3 -3 -4 -5 -5 -6 -5 -5 -6 -6 -4 -4 -6 -6 -5 -4 -2 -1 0 1 1 2 3 5 5 6
9 9 5 -3 1 3 3 3 4 -2 -1 4 7 8 1 1 0 -1 0 5 6 6 7 9 10 10 11 10 9 8 8 8 8 9 9 10 11 11 10 10 8 5 4 3 3 4 5 5 5 6 8 6 3 1 -1 -2 -2 -2 -2 -2 -2 -4 -5 -6 -6 -6 -5 -6 -6 -3 -4 -6 -8 -7 -5 -3 -2 -1 -1 0 1 2 3 4 5 6
3 6 3 3 0 1 2 -2 -1 1 4 4 7 8 5 3 2 3 6 7 6 7 9 10 11 11 11 10 9 8 8 9 9 10 10 10 10 9 10 10 7 5 4 4 4 5 5 6 7 8 7 5 1 -0 -2 -2 -2 -3 -3 -1 -2 -5 -6 -6 -6 -6 -7 -6 -3 -4 -7 -6 -6 -4 -4 -3 -1 -1 -0 0 1 2 3 5 5 6
12 2 -2 2 -1 -2 1 3 4 5 4 5 1 1 1 1 2 5 5 6 5 8 10 10 10 10 8 8 8 8 9 10 10 7 8 8 9 11 10 10 8 5 4 5 6 6 6 7 8 8 6 3 0 -1 -2 -2 -3 -3 -1 -2 -4 -5 -6 -6 -6 -7 -7 -3 -2 -6 -6 -6 -5 -3 -3 -2 -2 -1 -1 0 1 2 5 5 6 7
11 5 4 4 3 -1 -0 4 3 3 2 3 1 3 4 4 7 8 7 6 5 8 9 8 8 7 6 6 7 8 10 10 5 5 8 11 12 11 10 10 7 6 5 5 7 8 8 9 9 7 4 1 -1 -2 -2 -4 -3 -2 -3 -4 -5 -6 -6 -6 -7 -7 -5 -1 -5 -6 -6 -5 -4 -4 -3 -1 -0 0 0 1 3 4 5 6 6 7
11 7 4 7 4 3 2 -1 1 2 4 2 1 5 7 8 9 9 6 2 7 8 7 7 6 6 6 6 7 9 9 5 4 8 11 13 13 11 9 9 7 6 6 7 8 8 8 9 7 5 3 0 -1 -2 -4 -3 -2 -3 -4 -5 -5 -6 -6 -7 -8 -6 -2 -2 -6 -7 -6 -5 -4 -3 -2 -0 1 1 2 3 3 5 6 6 7 8
5 3 2 3 1 2 2 0 -2 -5 1 2 4 7 7 9 8 7 -4 -3 8 7 7 6 6 6 6 7 8 9 8 4 6 9 12 13 14 12 10 8 7 7 7 8 8 9 8 7 5 3 1 -0 -2 -2 -2 -3 -2 -3 -4 -5 -5 -6 -7 -8 -7 -4 -1 -5 -6 -7 -6 -5 -2 -1 -0 0 1 1 2 3 4 5 6 7 8 9
2 2 1 4 1 6 8 3 3 4 8 4 5 8 8 8 5 0 -3 5 8 7 7 6 6 6 7 7 9 8 10 10 11 13 13 14 12 10 9 8 7 7 7 7 8 11 6 4 3 2 0 -2 -2 -2 -3 -2 -1 -3 -5 -5 -5 -6 -7 -7 -3 -1 -5 -6 -6 -6 -4 -2 -2 -1 -1 -0 0 1 2 3 4 5 6 7 8 9
1 2 3 -0 1 1 2 5 5 8 5 6 7 6 7 6 1 1 6 8 7 7 6 6 6 7 7 8 8 9 10 11 12 12 12 11 9 8 8 7 6 7 7 7 9 7 3 1 0 0 -1 -3 -2 -3 -3 -3 -3 -3 -3 -4 -6 -8 -7 -3 -2 -5 -7 -8 -6 -4 -3 -3 -3 -2 -2 -0 1 1 2 4 5 6 7 7 8 9
4 1 1 3 5 6 6 5 3 0 8 7 5 6 7 5 5 7 8 8 8 7 6 7 7 7 8 8 9 9 9 11 10 10 9 8 8 7 7 6 7 6 6 6 4 2 1 -3 -4 -3 -2 -1 -4 -6 -5 -5 -5 -4 -3 -6 -7 -6 -3 -3 -6 -6 -7 -6 -4 -2 -3 -3 -3 -2 -1 -0 1 2 3 4 5 6 7 7 8 9
7 1 0 1 4 4 4 3 3 8 7 8 4 4 5 7 8 9 9 7 8 8 7 7 8 9 9 8 8 7 8 9 9 7 7 7 7 7 4 5 5 3 5 3 1 -1 -2 -6 -4 -2 -1 -5 -7 -6 -6 -5 -5 -4 -5 -6 -6 -2 -4 -6 -7 -6 -5 -4 -3 -4 -4 -3 -2 -1 -1 0 2 2 2 3 4 5 6 7 8 9
11 3 5 4 4 5 5 7 8 8 8 7 6 7 8 9 10 10 10 8 8 8 9 8 9 9 9 8 7 6 6 7 6 5 5 5 5 3 3 4 2 2 -1 2 -1 -3 -6 -4 -1 -4 -6 -7 -7 -7 -7 -5 -4 -5 -5 -5 -3 -5 -6 -6 -6 -6 -5 -3 -4 -5 -5 -4 -3 -2 -0 1 1 1 2 2 4 4 5 7 8 10
10 9 7 3 8 8 7 7 11 8 7 6 7 9 8 9 11 11 10 9 9 9 10 10 10 9 8 7 5 5 5 4 4 4 4 3 2 3 3 2 1 -3 -2 -1 -4 -6 -3 -2 -5 -6 -6 -8 -8 -7 -6 -5 -5 -5 -5 -2 -5 -6 -7 -7 -7 -6 -5 -5 -5 -5 -5 -5 -3 -2 -0 0 1 1 2 2 3 4 5 7 8 10
9 4 3 4 6 6 5 8 7 6 6 7 7 8 10 11 11 11 10 10 10 10 11 11 10 9 8 6 5 5 3 3 3 2 1 -0 1 2 1 0 -1 -3 -2 -3 -5 -3 -2 -5 -6 -7 -7 -7 -7 -7 -6 -7 -5 -4 -2 -6 -7 -7 -7 -7 -7 -6 -6 -6 -6 -6 -5 -4 -4 -3 -2 -1 -0 0 1 2 3 4 6 7 9 11
10 7 4 6 6 5 6 7 8 7 7 8 9 9 10 11 12 11 12 11 11 12 12 11 9 8 7 6 5 3 3 3 2 0 -0 1 2 2 -0 -2 -5 -6 -4 -5 -5 -5 -5 -7 -7 -7 -7 -7 -6 -6 -7 -6 -4 -3 -8 -8 -7 -7 -7 -7 -6 -7 -7 -7 -7 -6 -5 -4 -3 -3 -3 -2 -2 -1 -0 1 3 5 6 8 10 13
7 11 8 7 6 7 8 8 7 7 8 9 9 10 12 12 12 12 12 11 12 12 12 9 8 7 6 5 4 4 2 2 1 -0 1 2 1 -1 -3 -6 -7 -6 -6 -7 -6 -5 -8 -8 -7 -7 -7 -6 -7 -6 -6 -4 -4 -8 -9 -8 -8 -7 -7 -7 -7 -6 -7 -7 -7 -7 -5 -5 -4 -4 -4 -3 -2 -1 0 1 3 6 9 12 14 15
8 10 8 9 9 8 7 6 7 7 7 8 10 11 12 13 13 13 12 11 12 13 9 7 6 6 5 4 4 2 2 1 0 1 3 -0 -4 -6 -7 -7 -5 -6 -8 -7 -7 -9 -9 -8 -7 -7 -6 -7 -7 -6 -5 -5 -10 -9 -9 -8 -8 -7 -8 -8 -7 -7 -8 -8 -8 -7 -6 -6 -5 -5 -4 -4 -3 -2 -1 4 10 11 12 12 15 17
6 6 10 8 7 7 7 7 9 9 9 10 11 12 13 14 14 12 12 12 13 11 8 7 6 5 4 4 4 2 1 -1 0 3 -4 -7 -8 -8 -7 -5 -6 -7 -7 -7 -9 -9 -8 -8 -7 -6 -6 -7 -6 -5 -6 -10 -9 -10 -9 -8 -8 -7 -8 -8 -7 -9 -10 -9 -8 -7 -7 -6 -6 -5 -5 -4 -3 -2 -0 1 5 12 14 15 15 17